sat.trackr.live / text

‹ back to catalog

STARLINK-5793

NORAD 56038 · 2023-042BE

PAYLOAD ACTIVE UNKNOWN

§ Identity

Operator
Country
US
Launch date
2023-03-24
Launch site
AFETR
Launch vehicle
Mass (kg)
RCS (m²)

Purposes: comms

External: N2YO · Heavens-Above · Gunter

§ Orbital elements

Epoch: 2026-09-19T09:05:15.426528Z

Period
94.27 min
Inclination
43.0028°
Eccentricity
0.0001194
Mean motion
15.27584010 rev/d
Perigee alt
482.2 km
Apogee alt
483.9 km
Semi-major
6,861.2 km
B*
6.7098e-5
RAAN
31.7079°
Arg perigee
271.4322°
Mean anomaly
88.6393°
Rev number
19,265

§ Raw data

STARLINK-57931 56038U 23042BE  26262.37865077  .00001585  00000+0  67098-4 0  99962 56038  43.0028  31.7079 0001194 271.4322  88.6393 15.27584010192657

JSON: /api/v1/satellites/56038 · /tle

For live sub-satellite position, see the globe view (requires WebGL).

§ Visibility from observer

Set your observer location to see the next 7 days of passes ≥ 10°. The values pass through the URL so the page stays shareable.

No JS? Fill the form by hand. The geolocation button needs JavaScript.